Location: El Álamo
(40.2307°N, 3.9945°W)
Time: 04:47:22
(UTC+00:00)

Cosmos 1356 Rocket - Pass Details

Date: 19 May 2025
Orbit: 517 x 565 km, 81.2° (Epoch: 23 June)

Event Time Altitude Azimuth Distance (km) Brightness Sun altitude
Exits shadow 22:03:56 44° 232° (SW) 783 4.0 -22.8°
Maximum altitude 22:04:53 57° 281° (W) 670 3.8 -22.9°
Drops below altitude 10° 22:08:56 10° 1° (N) 1,861 6.8 -23.3°
Sets 22:11:09 0° 5° (N) 2,756 7.7 -23.5°
